Regional Weather Roundup
Issued by NWS Northern Indiana

Home | Current Version | Previous Version | Text Only | Print | Product List | Glossary Off
Versions: 1 2 3 4 5 6 7 8 9 10 11 12 13 14 15 16 17 18 19 20 21 22 23 24 25 26 27 28 29 30 31 32 33 34 35 36 37 38 39 40 41 42 43 44 45 46 47 48 49 50

000
ASUS43 KIWX 201200
RWRIWX

KIWX WEATHER ROUNDUP
NATIONAL WEATHER SERVICE NORTHERN INDIANA
700 AM EST FRI JAN 20 2017

NOTE: "FAIR" INDICATES FEW OR NO CLOUDS BELOW 12,000 FEET WITH NO
SIGNIFICANT WEATHER AND/OR OBSTRUCTIONS TO VISIBILITY.

* THESE STATIONS ARE NOT UNDER NWS QUALITY CONTROL. THEY ALSO MAY NOT
  REPORT WEATHER SUCH AS PRECIPITATION OR FOG.

INZ001>027-201300-
NORTHERN INDIANA

CITY           SKY/WX    TMP DP  RH WIND       PRES   REMARKS
GARY*          LGT RAIN  39  39 100 NE6       29.62F
VALPARAISO     LGT RAIN  39  37  93 NE6       29.61S FOG
SOUTH BEND     LGT RAIN  37  37 100 NE5       29.62S FOG
6HR MIN TEMP:  37; 6HR MAX TEMP:  38; 6HR PCP:  0.32;

ELKHART*       LGT RAIN  37  36  93 E8        29.61  FOG
GOSHEN         LGT RAIN  37  34  89 E7        29.60F
6HR MIN TEMP:  37; 6HR MAX TEMP:  39; 6HR PCP:  0.40;

FORT WAYNE     LGT RAIN  39  36  89 E9        29.60S
6HR MIN TEMP:  39; 6HR MAX TEMP:  40; 6HR PCP:  0.72;

PERU/GRISSOM   CLOUDY    40  40 100 E6        29.56S
6HR MIN TEMP:  40; 6HR MAX TEMP:  42; 6HR PCP:  0.56;


$$
INZ028>050-201300-
CENTRAL INDIANA

CITY           SKY/WX    TMP DP  RH WIND       PRES   REMARKS
LAFAYETTE      CLOUDY    42  42 100 CALM      29.59R FOG
6HR MIN TEMP:  42; 6HR MAX TEMP:  43; 6HR PCP:  0.43;

KOKOMO*        LGT RAIN  41  40  96 E6        29.58R
6HR MIN TEMP:  41; 6HR MAX TEMP:  42; 6HR PCP:  0.58;

MUNCIE*        LGT RAIN  44  42  93 CALM      29.57F FOG
6HR MIN TEMP:  43; 6HR MAX TEMP:  44; 6HR PCP:  0.64;

INDIANAPOLIS   LGT RAIN  48  47  96 SW7       29.59R FOG
6HR MIN TEMP:  44; 6HR MAX TEMP:  48; 6HR PCP:  0.52;


$$
MIZ043>046-050>051-056>058-064>065-071>073-077>080-201300-
SOUTHWEST LOWER MICHIGAN

CITY           SKY/WX    TMP DP  RH WIND       PRES   REMARKS
BATTLE CREEK   LGT RAIN  36  35  96 NE5       29.65R FOG
6HR MIN TEMP:  36; 6HR MAX TEMP:  37; 6HR PCP:  0.22;

BENTON HARBOR  LGT RAIN  39  36  89 NE6       29.63F FOG
6HR MIN TEMP:  38; 6HR MAX TEMP:  39; 6HR PCP:  0.43;

COLDWATER*     LGT RAIN  36  36 100 E6        29.62S
6HR MIN TEMP:  36; 6HR MAX TEMP:  38;

HILLSDALE*     MIX PCPN  32  32 100 E9        29.62S WCI  24
HOLLAND        LGT RAIN  36  34  92 NE7       29.67S
6HR MIN TEMP:  36; 6HR MAX TEMP:  37; 6HR PCP:  0.28;

GRAND RAPIDS   LGT RAIN  34  32  92 NE5       29.68S FOG     WCI  30
6HR MIN TEMP:  34; 6HR MAX TEMP:  36; 6HR PCP:  0.11;

KALAMAZOO      LGT RAIN  37  34  89 NE6       29.65S FOG
6HR MIN TEMP:  37; 6HR MAX TEMP:  38; 6HR PCP:  0.35;

STURGIS*       MIX PCPN  35  35  98 E6        29.61F WCI  30
6HR MIN TEMP:  35; 6HR MAX TEMP:  37; 6HR PCP:  0.30;

THREE RIVERS*  LGT RAIN  36  35  96 NE5       29.63F
6HR MIN TEMP:  36; 6HR MAX TEMP:  37;


$$
OHZ001>008-015>018-024>025-201300-
NORTHWEST OHIO

CITY           SKY/WX    TMP DP  RH WIND       PRES   REMARKS
DEFIANCE       LGT RAIN  35  34  96 E7        29.63S FOG     WCI  29
6HR MIN TEMP:  35; 6HR MAX TEMP:  36; 6HR PCP:  0.39;

FINDLAY        LGT RAIN  41  38  89 E7        29.61R FOG
6HR MIN TEMP:  38; 6HR MAX TEMP:  41; 6HR PCP:  0.55;

TOLEDO EXPRESS RAIN      35  35 100 NE13      29.64S FOG     WCI  26
6HR MIN TEMP:  34; 6HR MAX TEMP:  35; 6HR PCP:  0.23;

TOLEDO METCALF RAIN      36  36 100 E6        29.66S FOG
6HR MIN TEMP:  35; 6HR MAX TEMP:  36; 6HR PCP:  0.19;

LIMA           LGT RAIN  42  42 100 SE9       29.60R FOG
6HR MIN TEMP:  39; 6HR MAX TEMP:  42; 6HR PCP:  0.76;


$$
AND FOR LAKE MICHIGAN COASTAL AND OPEN LAKE BUOY OBSERVATIONS

STATION/POSITION TEMP    WIND        PRES    VSBY  WAVE
                 AIR SEA DIR/SP/G                  HT/PER
                 (F)     (DEG/KT/KT) (MB)    (MI)  (FT/S)
CALUMET HARBOR    36      10/  7/ 10 1002.6F
MICHIGAN CITY     34      40/  8/  9   N/A
BURNS HARBOR      34      80/  6/  8 1003.7S

$$
&&




USA.gov is the U.S. government's official web portal to all federal, state and local government web resources and services.